Miscellaneous Local Product
Issued by NWS Hastings, NE

Home | Current Version | Previous Version | Text Only | Print | Product List | Glossary Off
Versions: 1 2 3 4 5 6 7 8 9 10 11 12 13 14 15 16 17 18 19 20 21 22 23 24 25 26 27 28 29 30 31 32 33 34 35 36 37 38 39 40 41 42 43 44 45 46 47 48 49 50

000
AXUS43 KGID 020502
MISGRI

GID CWA HOURLY WEATHER ROUNDUP
NATIONAL WEATHER SERVICE HASTINGS NE
1200 AM CDT TUE SEP 02 2014

NOTE: "FAIR" INDICATES FEW OR NO CLOUDS BELOW 12,000 FEET WITH NO
SIGNIFICANT WEATHER AND/OR OBSTRUCTIONS TO VISIBILITY.

...SOUTH CENTRAL NEBRASKA...

CITY           SKY/WX    TMP DP  RH WIND       PRES   REMARKS
GRAND ISLAND   PTCLDY    59  55  87 NW3       30.00R
HASTINGS       PTCLDY    60  53  77 E6        29.97R
KEARNEY        MOCLDY    57  54  88 N7        30.00R
ORD            CLOUDY    56  55  97 SW9       29.99F
YORK           CLEAR     59 N/A N/A N10       29.96F
AURORA         PTCLDY    58  55  89 CALM      29.98R
LEXINGTON      PTCLDY    60  58  93 N5        30.04R
HOLDREGE       MOCLDY    61  58  91 CALM      30.02F
HEBRON         CLEAR     60  57  91 NW5       29.97R

...NEBRASKA PANHANDLE...

CITY           SKY/WX    TMP DP  RH WIND       PRES   REMARKS
CHADRON        CLEAR     49  46  90 SW6       30.05R
ALLIANCE       CLEAR     47  46  97 CALM      30.07R
SCOTTSBLUFF    CLEAR     53  48  83 CALM      30.09R
SIDNEY         PTCLDY    57  47  69 N8        30.11R

...WESTERN AND NORTH CENTRAL NEBRASKA...

CITY           SKY/WX    TMP DP  RH WIND       PRES   REMARKS
VALENTINE      CLEAR     52  51  97 SW7       30.01R
AINSWORTH      CLEAR     54  53  97 W5        30.01R
ONEILL         PTCLDY    58  57  97 SW6       29.98R
BROKEN BOW     PTCLDY    55  53  93 CALM      30.01S
IMPERIAL       PTCLDY    60  54  80 NE9       30.05R
NORTH PLATTE   PTCLDY    56  53  90 S3        30.05R
MCCOOK         PTCLDY    63  54  72 NE8       30.01R

...EASTERN NEBRASKA...

CITY           SKY/WX    TMP DP  RH WIND       PRES   REMARKS
NORFOLK        CLOUDY    59  56  89 SW10      29.96F
SO SIOUX CITY  TSTM      61  58  90 NW20G30     N/A
TEKAMAH        LGT RAIN  64  58  80 NW25G45   29.97R
ALBION         RAIN      58  56  94 W9        30.03R
OMAHA EPPLEY   PTCLDY    64  62  93 NW5       29.95R
OFFUTT AFB     CLEAR     64  64 100 NW6       29.94R
MILLARD        PTCLDY    68  63  85 NW10      29.95R
LINCOLN        CLEAR     67  60  78 NW14G23   29.97R
NEBRASKA CITY  CLEAR     61  61 100 SW5       29.94R
BEATRICE       CLEAR     58  58  98 W5        29.96R
FALLS CITY     PTCLDY    64  63  96 NW3       29.91R

...NORTHERN KANSAS...

CITY           SKY/WX    TMP DP  RH WIND       PRES   REMARKS
GOODLAND       CLEAR     63  55  75 S13       30.01S
HILL CITY      PTCLDY    63  58  83 CALM      29.96R
NORTON         CLEAR     57  52  82 N14       29.98R
PHILLIPSBURG   CLEAR     61  61 100 N6        29.96R
SMITH CENTER   CLEAR     61  57  88 CALM      29.96R
HAYS           PTCLDY    64  57  77 CALM      29.95R
RUSSELL        CLEAR     66  63  90 SE6       29.93R
CONCORDIA      CLEAR     63  60  90 N3        29.94R
SALINA         CLEAR     71  66  84 S5        29.90S
TOPEKA         CLOUDY    72  71  97 SE5       29.88F



USA.gov is the U.S. government's official web portal to all federal, state and local government web resources and services.